DW7325 Weather Reports


Display with metric or nautical units.
time (UTC)temp
F
wind
direction
speed
MPH
gust
MPH
rain 1hr
in
rain 24hr
in
rain mn
in
humidity
%
barometer
mb
20260905210013 79 355 0.0 1.0 0.25 0.05 0.05 84 1009.6
20260905205907 79 355 0.0 1.0 0.43 0.04 0.05 84 1009.5
20260905205542 79 355 0.0 1.0 1.63 0.00 0.02 82 1009.5
20260905205438 79 331 0.0 0.0 0.00 0.00 0.00 81 1009.4
20260905205333 79 331 0.0 0.0 0.00 0.00 0.00 81 1009.4
20260905205225 79 331 0.0 0.0 0.00 0.00 0.00 81 1009.4
20260905204901 79 278 0.0 1.0 0.00 0.00 0.00 81 1009.4
20260905204757 79 278 0.0 1.0 0.00 0.00 0.00 81 1009.4
20260905204650 79 346 0.0 1.0 0.00 0.00 0.00 81 1009.5
20260905204322 79 346 0.0 3.0 0.00 0.00 0.00 81 1009.5
20260905204219 79 334 0.0 3.0 0.00 0.00 0.00 81 1009.5
20260905204113 79 334 0.0 3.0 0.00 0.00 0.00 81 1009.5
20260905204010 79 334 0.0 3.0 0.00 0.00 0.00 81 1009.5
20260905203905 79 334 0.0 3.0 0.00 0.00 0.00 81 1009.5
20260905203759 79 334 0.0 3.0 0.00 0.00 0.00 81 1009.5
20260905203653 79 334 0.0 3.0 0.00 0.00 0.00 81 1009.5
20260905203551 79 334 0.0 3.0 0.00 0.00 0.00 81 1009.6
20260905203225 79 355 0.0 3.0 0.00 0.00 0.00 80 1009.5
20260905203122 79 355 0.0 3.0 0.00 0.00 0.00 79 1009.5
20260905203015 79 355 0.0 3.0 0.00 0.00 0.00 79 1009.5
20260905202911 79 342 0.0 3.0 0.00 0.00 0.00 78 1009.5
20260905202803 79 219 0.0 3.0 0.00 0.00 0.00 78 1009.5
20260905202434 79 298 0.0 3.0 0.00 0.03 0.00 81 1009.4
20260905202330 79 276 0.0 2.0 0.00 0.05 0.00 80 1009.3
20260905202223 79 23 0.0 1.0 0.00 0.07 0.00 79 1009.4
20260905201900 79 44 0.0 1.0 0.00 0.13 0.00 81 1009.5
20260905201757 79 123 0.0 1.0 0.00 0.16 0.00 81 1009.5
20260905201653 79 112 0.0 1.0 0.00 0.20 0.00 80 1009.5
20260905201546 79 112 0.0 3.0 0.00 0.26 0.00 81 1009.5
20260905201223 79 152 0.0 3.0 0.00 0.42 0.00 78 1009.4
20260905200859 79 137 0.0 3.0 0.00 0.57 0.00 81 1009.6
20260905200754 79 137 0.0 3.0 0.00 0.57 0.00 82 1009.6
20260905200429 79 150 0.0 3.0 0.00 0.57 0.00 78 1009.6
20260905200321 79 169 0.0 3.0 0.00 0.57 0.00 78 1009.6
20260905200216 79 69 0.0 3.0 0.00 0.57 0.00 78 1009.6
20260905200109 79 18 0.0 3.0 0.00 0.57 0.00 81 1009.6
20260905200005 79 38 0.0 3.0 0.00 0.57 0.00 81 1009.6
20260905195902 79 70 0.0 3.0 0.00 0.57 0.00 79 1009.6
20260905195759 79 70 0.0 3.0 0.00 0.57 0.00 79 1009.6
20260905195653 79 56 0.0 3.0 0.00 0.57 0.00 82 1009.6
20260905195547 79 38 0.0 1.0 0.00 0.57 0.00 81 1009.6
20260905195443 79 38 0.0 1.0 0.00 0.57 0.00 81 1009.6
20260905195340 79 38 0.0 1.0 0.00 0.57 0.00 81 1009.6
20260905195234 79 38 0.0 1.0 0.00 0.57 0.00 81 1009.7
20260905195128 79 38 0.0 1.0 0.00 0.57 0.00 80 1009.7
20260905194809 79 32 0.0 1.0 0.00 0.57 0.00 80 1009.7
20260905194706 79 32 0.0 1.0 0.00 0.57 0.00 80 1009.8
20260905194604 79 17 0.0 1.0 0.00 0.57 0.00 80 1009.8
20260905194459 79 17 0.0 1.0 0.00 0.57 0.00 81 1009.8
20260905194356 79 277 0.0 1.0 0.00 0.57 0.00 80 1009.8
20260905194253 79 277 0.0 1.0 0.00 0.57 0.00 80 1009.8
20260905194150 79 277 0.0 1.0 0.00 0.57 0.00 80 1009.8
20260905194048 79 269 0.0 1.0 0.00 0.57 0.00 82 1009.8
20260905193723 78 135 0.0 1.0 0.00 0.57 0.00 81 1009.8
20260905193619 78 299 0.0 1.0 0.00 0.57 0.00 81 1009.8
20260905193514 78 299 0.0 1.0 0.00 0.57 0.00 81 1009.8
20260905193407 78 299 0.0 1.0 0.00 0.57 0.00 81 1009.8
20260905193303 78 299 0.0 1.0 0.00 0.57 0.00 82 1009.8
20260905193158 78 299 0.0 1.0 0.00 0.57 0.00 81 1009.8
20260905193053 78 299 0.0 2.0 0.00 0.57 0.00 81 1009.9
20260905192950 78 299 0.0 2.0 0.00 0.57 0.00 80 1009.9
20260905192626 78 242 0.0 2.0 0.00 0.57 0.00 81 1009.9
20260905192522 78 290 0.0 2.0 0.00 0.57 0.00 80 1009.9
20260905192418 78 225 0.0 2.0 0.00 0.57 0.00 80 1009.9
20260905192056 78 119 0.0 2.0 0.00 0.57 0.00 82 1010.0
20260905191952 78 119 0.0 2.0 0.00 0.57 0.00 83 1010.1
20260905191846 78 43 0.0 2.0 0.00 0.57 0.00 83 1010.1
20260905191742 78 24 0.0 2.0 0.00 0.57 0.00 85 1010.1
20260905191423 78 30 0.0 2.0 0.00 0.57 0.00 84 1010.1
20260905191316 78 30 0.0 2.0 0.00 0.57 0.00 83 1010.1
20260905190949 77 273 0.0 1.0 0.00 0.57 0.00 84 1010.1
20260905190844 77 279 0.0 1.0 0.00 0.57 0.00 84 1010.1
20260905190740 77 267 0.0 1.0 0.00 0.57 0.00 85 1010.1
20260905190637 78 267 0.0 1.0 0.00 0.57 0.00 85 1010.1
20260905190532 78 84 0.0 1.0 0.00 0.57 0.00 86 1010.1
20260905190426 78 84 0.0 1.0 0.00 0.57 0.00 86 1010.1
20260905190319 78 84 0.0 1.0 0.00 0.57 0.00 87 1010.1
20260905190213 78 84 0.0 0.0 0.00 0.57 0.00 87 1010.1
20260905190106 78 84 0.0 0.0 0.00 0.57 0.00 87 1010.1
20260905190003 78 84 0.0 0.0 0.00 0.57 0.00 87 1010.0
20260905185855 78 84 0.0 0.0 0.00 0.57 0.00 88 1010.1
20260905185751 78 84 0.0 0.0 0.00 0.57 0.00 87 1010.1
20260905185427 77 84 0.0 0.0 0.00 0.57 0.00 85 1010.1
20260905185320 77 84 0.0 0.0 0.00 0.57 0.00 85 1010.2
20260905185213 77 84 0.0 0.0 0.00 0.57 0.00 85 1010.2
20260905185109 78 84 0.0 0.0 0.00 0.57 0.00 85 1010.2
20260905185003 77 84 0.0 0.0 0.00 0.57 0.00 85 1010.2
20260905184858 77 84 0.0 0.0 0.00 0.57 0.00 84 1010.2
20260905184750 78 84 0.0 0.0 0.00 0.57 0.00 85 1010.3
20260905184645 78 84 0.0 0.0 0.00 0.57 0.00 85 1010.3
20260905184538 78 84 0.0 0.0 0.00 0.57 0.00 85 1010.3
20260905184214 78 84 0.0 2.0 0.00 0.57 0.00 85 1010.4
20260905184112 78 84 0.0 2.0 0.00 0.57 0.00 85 1010.4
20260905184004 78 84 0.0 2.0 0.00 0.57 0.00 86 1010.3
20260905183900 78 84 0.0 2.0 0.00 0.57 0.00 86 1010.3
20260905183758 78 84 0.0 2.0 0.00 0.57 0.00 85 1010.4
20260905183652 78 202 0.0 1.0 0.00 0.57 0.00 85 1010.4
20260905183549 78 208 0.0 1.0 0.00 0.57 0.00 84 1010.4
20260905183443 78 273 0.0 1.0 0.00 0.57 0.00 84 1010.4
20260905183338 78 273 0.0 1.0 0.00 0.57 0.00 84 1010.3
20260905183236 78 273 0.0 1.0 0.00 0.57 0.00 84 1010.3
20260905183131 78 197 0.0 0.0 0.00 0.57 0.00 84 1010.3
20260905183028 78 342 0.0 0.0 0.00 0.57 0.00 84 1010.4
20260905182924 78 342 0.0 0.0 0.00 0.57 0.00 84 1010.3
20260905182558 78 342 0.0 1.0 0.00 0.57 0.00 84 1010.3
20260905182230 78 355 0.0 1.0 0.00 0.57 0.00 87 1010.3
20260905182127 78 344 0.0 1.0 0.00 0.57 0.00 87 1010.2
20260905181759 78 344 0.0 2.0 0.00 0.57 0.00 86 1010.3
20260905181654 78 344 0.0 2.0 0.00 0.57 0.00 86 1010.3
20260905181551 78 307 0.0 2.0 0.00 0.57 0.00 85 1010.4
20260905181447 78 296 0.0 2.0 0.00 0.57 0.00 87 1010.3
20260905181340 78 296 0.0 2.0 0.00 0.57 0.00 87 1010.3
20260905181237 78 290 0.0 2.0 0.00 0.57 0.00 87 1010.3
20260905181134 78 209 0.0 2.0 0.00 0.57 0.00 87 1010.3
20260905180809 78 5 0.0 2.0 0.00 0.57 0.00 86 1010.3
20260905180703 78 5 0.0 2.0 0.00 0.57 0.00 86 1010.3
20260905180558 78 5 0.0 2.0 0.00 0.57 0.00 86 1010.4
20260905180454 78 5 0.0 2.0 0.00 0.57 0.00 86 1010.4
20260905180349 78 5 0.0 2.0 0.00 0.57 0.00 85 1010.4
20260905180246 78 351 0.0 2.0 0.00 0.57 0.00 86 1010.4
20260905180142 78 5 0.0 2.0 0.00 0.57 0.00 86 1010.4
20260905180039 78 290 0.0 2.0 0.00 0.57 0.00 86 1010.4
20260905175937 78 290 0.0 2.0 0.00 0.57 0.00 87 1010.5
20260905175830 77 32 0.0 2.0 0.00 0.57 0.00 86 1010.5
20260905175726 78 32 0.0 2.0 0.00 0.57 0.00 85 1010.4
20260905175357 77 320 0.0 2.0 0.00 0.57 0.00 85 1010.3
20260905175251 77 320 0.0 2.0 0.00 0.57 0.00 84 1010.4
20260905174922 78 15 0.0 2.0 0.00 0.57 0.00 84 1010.3
20260905174818 78 40 0.0 2.0 0.00 0.57 0.00 83 1010.3
20260905174713 78 63 0.0 2.0 0.00 0.57 0.00 85 1010.4
20260905174607 78 55 0.0 2.0 0.00 0.57 0.00 85 1010.4
20260905174503 78 155 0.0 2.0 0.00 0.57 0.00 85 1010.5
20260905174358 78 116 0.0 2.0 0.00 0.57 0.00 85 1010.5
20260905174252 78 108 0.0 2.0 0.00 0.57 0.00 86 1010.4
20260905174145 78 331 0.0 2.0 0.00 0.57 0.00 84 1010.4
20260905174043 78 259 0.0 2.0 0.00 0.57 0.00 86 1010.5
20260905173937 78 39 0.0 2.0 0.00 0.57 0.00 86 1010.5
20260905173830 78 39 0.0 2.0 0.00 0.57 0.00 85 1010.5
20260905173501 77 59 0.0 2.0 0.00 0.57 0.00 88 1010.5
20260905173357 77 48 0.0 2.0 0.00 0.57 0.00 88 1010.5
20260905173255 77 48 0.0 2.0 0.00 0.57 0.00 88 1010.6
20260905173148 76 48 0.0 2.0 0.00 0.57 0.00 89 1010.6
20260905173045 76 48 0.0 2.0 0.00 0.57 0.00 89 1010.6
20260905172942 76 296 0.0 2.0 0.00 0.57 0.00 88 1010.6
20260905172836 76 28 0.0 2.0 0.00 0.57 0.00 88 1010.6
20260905172730 76 28 0.0 2.0 0.00 0.57 0.00 90 1010.6
20260905172623 76 28 0.0 2.0 0.00 0.57 0.00 90 1010.6
20260905172520 76 28 0.0 2.0 0.00 0.57 0.00 90 1010.7
20260905172413 76 28 0.0 2.0 0.00 0.57 0.00 88 1010.7
20260905172050 76 25 0.0 2.0 0.00 0.57 0.00 91 1010.7
20260905171946 76 27 0.0 2.0 0.00 0.57 0.00 90 1010.8
20260905171840 76 30 0.0 1.0 0.00 0.57 0.00 89 1010.8
20260905171735 76 30 0.0 1.0 0.00 0.57 0.00 89 1010.9
20260905171628 76 30 0.0 1.0 0.00 0.57 0.00 88 1010.9
20260905171521 76 76 0.0 1.0 0.00 0.57 0.00 88 1010.9
20260905171418 75 76 0.0 1.0 0.00 0.57 0.00 89 1010.9
20260905171313 75 88 0.0 1.0 0.00 0.57 0.00 90 1010.9
20260905171210 75 82 0.0 1.0 0.00 0.57 0.00 90 1010.9
20260905171104 75 68 0.0 1.0 0.00 0.57 0.00 90 1011.0
20260905171000 75 347 0.0 1.0 0.00 0.57 0.00 90 1010.9
20260905170856 75 347 0.0 1.0 0.00 0.57 0.00 91 1011.0
20260905170752 75 347 0.0 1.0 0.00 0.57 0.00 92 1010.9
20260905170648 75 347 0.0 1.0 0.00 0.57 0.00 92 1010.9
20260905170546 75 347 0.0 1.0 0.00 0.57 0.00 92 1010.9
20260905170443 75 347 0.0 0.0 0.00 0.57 0.00 93 1010.9
20260905170337 75 347 0.0 0.0 0.00 0.57 0.00 94 1011.0
20260905165756 75 347 0.0 0.0 0.00 0.57 0.00 94 1011.1
20260905165651 75 347 0.0 0.0 0.00 0.57 0.00 94 1011.1
20260905165548 75 347 0.0 0.0 0.00 0.57 0.00 94 1011.2
20260905165222 75 347 0.0 0.0 0.00 0.57 0.00 94 1011.3
20260905165117 75 347 0.0 0.0 0.00 0.57 0.00 94 1011.4
20260905165015 75 347 0.0 0.0 0.00 0.57 0.00 94 1011.3
20260905164912 75 347 0.0 0.0 0.00 0.57 0.00 94 1011.4
20260905164805 75 347 0.0 0.0 0.00 0.57 0.00 94 1011.5
20260905164658 75 347 0.0 0.0 0.00 0.57 0.00 94 1011.5
20260905164553 75 347 0.0 0.0 0.00 0.57 0.00 94 1011.6
20260905164225 75 347 0.0 0.0 0.00 0.57 0.00 94 1011.6
20260905163424 75 347 0.0 0.0 0.00 0.57 0.00 94 1011.7
20260905163318 75 347 0.0 0.0 0.00 0.57 0.00 94 1011.7
20260905163216 75 347 0.0 0.0 0.00 0.57 0.00 94 1011.7
20260905163112 75 347 0.0 0.0 0.00 0.57 0.00 94 1011.7
20260905163004 75 347 0.0 0.0 0.00 0.57 0.00 94 1011.7
20260905162856 75 347 0.0 0.0 0.00 0.57 0.00 94 1011.7
20260905162051 75 347 0.0 0.0 0.00 0.57 0.00 94 1011.7
20260905161945 75 347 0.0 0.0 0.00 0.57 0.00 94 1011.7
20260905161838 75 347 0.0 0.0 0.00 0.57 0.00 94 1011.7
20260905161734 75 347 0.0 0.0 0.00 0.57 0.00 94 1011.7
20260905161410 75 347 0.0 0.0 0.00 0.57 0.00 94 1011.8
20260905161044 75 347 0.0 0.0 0.00 0.57 0.00 94 1011.8
20260905160939 75 347 0.0 0.0 0.00 0.57 0.00 94 1011.9
20260905160832 75 347 0.0 0.0 0.00 0.57 0.00 93 1011.9
20260905160726 75 347 0.0 0.0 0.00 0.57 0.00 93 1011.9
20260905160620 75 347 0.0 0.0 0.00 0.57 0.00 93 1011.9
20260905160249 75 347 0.0 0.0 0.00 0.57 0.00 93 1012.0
20260905160145 75 347 0.0 1.0 0.00 0.57 0.00 93 1012.0
20260905160043 75 347 0.0 1.0 0.00 0.57 0.00 93 1012.1
20260905155938 75 347 0.0 1.0 0.00 0.57 0.00 93 1012.1
20260905155832 75 347 0.0 1.0 0.00 0.57 0.00 93 1012.0
20260905155725 75 347 0.0 1.0 0.00 0.57 0.00 93 1012.1
20260905155621 75 347 0.0 0.0 0.00 0.57 0.00 93 1012.1
20260905155519 75 347 0.0 0.0 0.00 0.57 0.00 93 1012.2
20260905155412 75 347 0.0 0.0 0.00 0.57 0.00 93 1012.2
20260905155310 75 347 0.0 0.0 0.00 0.57 0.00 93 1012.2
20260905155203 75 347 0.0 0.0 0.00 0.57 0.00 94 1012.2
20260905155056 75 347 0.0 0.0 0.00 0.57 0.00 93 1012.2
20260905154951 75 347 0.0 0.0 0.00 0.57 0.00 93 1012.2
20260905154848 75 347 0.0 0.0 0.00 0.57 0.00 93 1012.2
20260905154741 75 347 0.0 0.0 0.00 0.57 0.00 93 1012.2
20260905154417 75 347 0.0 0.0 0.00 0.57 0.00 93 1012.1
20260905154312 75 347 0.0 0.0 0.00 0.57 0.00 93 1012.1
20260905154208 75 347 0.0 0.0 0.00 0.57 0.00 93 1012.0
20260905154101 75 347 0.0 0.0 0.00 0.57 0.00 93 1012.0
20260905153958 75 347 0.0 0.0 0.00 0.57 0.00 93 1012.0
20260905153632 76 347 0.0 0.0 0.00 0.57 0.00 93 1011.9
20260905153054 76 347 0.0 0.0 0.00 0.57 0.00 93 1011.9
20260905152949 76 347 0.0 0.0 0.00 0.57 0.00 93 1011.9
20260905152846 75 347 0.0 0.0 0.00 0.57 0.00 93 1011.9
20260905152743 75 347 0.0 0.0 0.00 0.57 0.00 93 1011.9
20260905152639 75 347 0.0 0.0 0.00 0.57 0.00 93 1011.9
20260905152534 76 347 0.0 0.0 0.00 0.57 0.00 93 1011.9
20260905152425 75 347 0.0 0.0 0.00 0.57 0.00 93 1011.9
20260905152323 75 347 0.0 0.0 0.00 0.57 0.00 93 1011.9
20260905152221 75 347 0.0 0.0 0.00 0.57 0.00 93 1011.8
20260905152116 75 330 0.0 0.0 0.00 0.57 0.00 93 1011.8
20260905152015 75 304 0.0 0.0 0.00 0.57 0.00 93 1011.8
20260905151910 75 304 0.0 0.0 0.00 0.57 0.00 93 1011.8
20260905151807 75 304 0.0 0.0 0.00 0.57 0.00 93 1011.8
20260905151701 75 302 0.0 0.0 0.00 0.57 0.00 93 1011.8
20260905151555 75 49 0.0 0.0 0.00 0.57 0.00 93 1011.8
20260905151448 75 49 0.0 0.0 0.00 0.57 0.00 93 1011.8
20260905151344 75 49 0.0 0.0 0.00 0.57 0.00 93 1011.9
20260905151242 75 49 0.0 1.0 0.00 0.57 0.00 92 1012.0
20260905151139 75 49 0.0 1.0 0.00 0.57 0.00 92 1012.0
20260905151036 75 49 0.0 1.0 0.00 0.57 0.00 92 1012.1
20260905150934 75 49 0.0 0.0 0.00 0.57 0.00 93 1012.0
20260905150831 75 49 0.0 0.0 0.00 0.57 0.00 93 1012.1
20260905150725 75 49 0.0 0.0 0.00 0.57 0.00 93 1012.1
20260905150622 75 49 0.0 0.0 0.00 0.57 0.00 93 1012.1
20260905150518 75 49 0.0 0.0 0.00 0.57 0.00 93 1012.1
20260905150415 75 49 0.0 1.0 0.00 0.57 0.00 93 1012.2
20260905150310 75 49 0.0 1.0 0.00 0.57 0.00 94 1012.2
20260905150205 75 49 0.0 1.0 0.00 0.57 0.00 94 1012.2
20260905145032 75 11 0.0 0.0 0.00 0.57 0.00 95 1012.1
20260905144927 75 11 0.0 0.0 0.00 0.57 0.00 95 1012.1
20260905144820 75 11 0.0 1.0 0.00 0.57 0.00 95 1012.0
20260905144716 75 11 0.0 1.0 0.00 0.57 0.00 96 1012.0
20260905144612 75 80 0.0 1.0 0.00 0.57 0.00 95 1012.0
20260905144505 75 80 0.0 1.0 0.00 0.57 0.00 96 1011.9
20260905144403 75 336 0.0 1.0 0.00 0.57 0.00 96 1011.9
20260905144043 75 79 0.0 1.0 0.00 0.57 0.00 97 1011.9
20260905143938 75 46 0.0 1.0 0.00 0.57 0.00 97 1011.8
20260905143835 75 48 0.0 1.0 0.00 0.57 0.00 97 1011.8
20260905143730 75 86 0.0 1.0 0.00 0.57 0.00 97 1011.8
20260905143627 75 344 0.0 1.0 0.00 0.57 0.00 97 1011.8
20260905143524 75 253 0.0 1.0 0.00 0.57 0.00 97 1011.7
20260905143421 75 69 0.0 1.0 0.00 0.57 0.00 97 1011.8
20260905143320 75 36 0.0 0.0 0.00 0.57 0.00 97 1011.8
20260905143217 75 44 0.0 0.0 0.00 0.57 0.00 97 1011.8
20260905143113 75 44 0.0 0.0 0.00 0.57 0.00 97 1011.8
20260905142748 75 44 0.0 0.0 0.00 0.57 0.00 97 1011.9
20260905142646 75 44 0.0 0.0 0.00 0.57 0.00 97 1011.8
20260905142539 75 44 0.0 1.0 0.00 0.57 0.00 97 1011.9
20260905142216 74 243 0.0 0.0 0.00 0.57 0.00 97 1011.8
20260905142111 74 227 0.0 1.0 0.00 0.57 0.00 97 1011.9
20260905142010 74 224 0.0 1.0 0.00 0.57 0.00 97 1011.8
20260905141906 74 15 0.0 1.0 0.00 0.57 0.00 97 1011.8
20260905141804 74 15 0.0 1.0 0.00 0.57 0.00 97 1011.9
20260905141657 74 267 0.0 0.0 0.00 0.57 0.00 97 1011.9
20260905141554 74 267 0.0 0.0 0.00 0.57 0.00 97 1011.9
20260905141449 74 267 0.0 0.0 0.00 0.57 0.00 97 1011.9
20260905141345 74 267 0.0 0.0 0.00 0.57 0.00 97 1011.8
20260905141242 74 267 0.0 0.0 0.00 0.57 0.00 97 1011.8
20260905141133 74 267 0.0 0.0 0.00 0.57 0.00 97 1011.8
20260905141027 74 267 0.0 0.0 0.00 0.57 0.00 97 1011.8
20260905140920 74 267 0.0 0.0 0.00 0.57 0.00 97 1011.8
20260905140815 74 267 0.0 1.0 0.00 0.57 0.00 97 1011.8
20260905140711 74 267 0.0 1.0 0.00 0.57 0.00 97 1011.8
20260905140605 74 274 0.0 1.0 0.00 0.57 0.00 97 1011.8
20260905140458 74 5 0.0 1.0 0.00 0.57 0.00 97 1011.9
20260905140353 74 355 0.0 1.0 0.00 0.57 0.00 97 1011.8
20260905140249 74 355 0.0 1.0 0.00 0.57 0.00 97 1011.8
20260905140146 74 355 0.0 0.0 0.00 0.57 0.00 97 1011.7
20260905140042 74 355 0.0 0.0 0.00 0.57 0.00 97 1011.7
20260905135720 74 62 0.0 0.0 0.00 0.57 0.00 97 1011.5
20260905135359 74 10 0.0 0.0 0.00 0.57 0.00 97 1011.4
20260905135034 74 10 0.0 0.0 0.00 0.57 0.00 97 1011.4
20260905134709 74 10 0.0 0.0 0.00 0.57 0.00 97 1011.3
20260905134601 74 10 0.0 0.0 0.00 0.57 0.00 97 1011.2
20260905134454 74 10 0.0 0.0 0.00 0.57 0.00 97 1011.2
20260905134348 74 10 0.0 0.0 0.00 0.57 0.00 97 1011.2
20260905134241 74 10 0.0 0.0 0.00 0.57 0.00 97 1011.1
20260905134136 74 10 0.0 0.0 0.00 0.57 0.00 97 1011.1
20260905133554 74 10 0.0 0.0 0.00 0.57 0.00 97 1011.2
20260905133447 74 10 0.0 0.0 0.00 0.57 0.00 97 1011.2
20260905133341 74 10 0.0 0.0 0.00 0.57 0.00 97 1011.2
20260905133239 74 10 0.0 0.0 0.00 0.57 0.00 97 1011.3
20260905133137 74 355 0.0 0.0 0.00 0.57 0.00 97 1011.2
20260905133032 74 355 0.0 0.0 0.00 0.57 0.00 97 1011.2
20260905132928 74 355 0.0 0.0 0.00 0.57 0.00 97 1011.2
20260905132825 74 355 0.0 1.0 0.00 0.57 0.00 97 1011.2
20260905132720 74 355 0.0 1.0 0.00 0.57 0.00 97 1011.2
20260905132614 73 355 0.0 1.0 0.00 0.57 0.00 97 1011.2
20260905132508 73 355 0.0 1.0 0.00 0.57 0.00 98 1011.2
20260905132405 74 355 0.0 1.0 0.00 0.57 0.00 98 1011.2
20260905132043 74 355 0.0 1.0 0.00 0.57 0.00 98 1011.1
20260905131723 74 304 0.0 1.0 0.00 0.57 0.00 98 1011.1
20260905131620 73 306 0.0 1.0 0.00 0.57 0.00 98 1011.0
20260905131513 73 277 0.0 0.0 0.00 0.57 0.00 98 1011.0
20260905130701 73 282 0.0 0.0 0.00 0.57 0.00 98 1011.2
20260905130557 73 282 0.0 0.0 0.00 0.57 0.00 98 1011.1
20260905130449 73 282 0.0 0.0 0.00 0.57 0.00 98 1011.1
20260905130343 73 282 0.0 0.0 0.00 0.57 0.00 98 1011.1
20260905130017 72 324 0.0 0.0 0.00 0.57 0.00 98 1011.1
20260905125913 72 324 0.0 0.0 0.00 0.57 0.00 98 1011.1
20260905125806 72 324 0.0 0.0 0.00 0.57 0.00 98 1011.2
20260905125700 72 324 0.0 0.0 0.00 0.57 0.00 98 1011.1
20260905125554 72 324 0.0 0.0 0.00 0.57 0.00 98 1011.2
20260905125446 72 324 0.0 0.0 0.00 0.57 0.00 98 1011.1
20260905125339 72 324 0.0 0.0 0.00 0.57 0.00 98 1011.1
20260905125236 71 324 0.0 0.0 0.00 0.57 0.00 98 1011.1
20260905124140 70 324 0.0 0.0 0.00 0.57 0.00 98 1011.2
20260905124035 70 324 0.0 0.0 0.00 0.57 0.00 98 1011.2
20260905123933 70 324 0.0 0.0 0.00 0.57 0.00 98 1011.1
20260905123827 70 324 0.0 0.0 0.00 0.57 0.00 98 1011.2
20260905123507 70 324 0.0 0.0 0.00 0.57 0.00 98 1011.2
20260905123402 70 324 0.0 0.0 0.00 0.57 0.00 98 1011.2
20260905123255 70 324 0.0 0.0 0.00 0.57 0.00 98 1011.3
20260905123148 70 324 0.0 0.0 0.00 0.57 0.00 98 1011.2
20260905122828 70 324 0.0 0.0 0.00 0.57 0.00 98 1011.2
20260905122504 70 324 0.0 0.0 0.00 0.57 0.00 98 1011.1
20260905122400 70 324 0.0 0.0 0.00 0.57 0.00 98 1011.1
20260905122251 70 324 0.0 0.0 0.00 0.57 0.00 98 1011.2
20260905122147 70 324 0.0 0.0 0.00 0.57 0.00 98 1011.1
20260905122043 70 324 0.0 0.0 0.00 0.57 0.00 98 1011.2
20260905121939 70 324 0.0 0.0 0.00 0.57 0.00 98 1011.2
20260905121836 70 324 0.0 0.0 0.00 0.57 0.00 98 1011.1
20260905121729 70 324 0.0 0.0 0.00 0.57 0.00 98 1011.1
20260905121626 70 324 0.0 0.0 0.00 0.57 0.00 98 1011.2
20260905121520 70 324 0.0 0.0 0.00 0.57 0.00 98 1011.2
20260905121414 70 324 0.0 0.0 0.00 0.57 0.00 98 1011.1
20260905121311 70 324 0.0 0.0 0.00 0.57 0.00 98 1011.1
20260905121208 70 324 0.0 0.0 0.00 0.57 0.00 98 1011.1
20260905121101 70 324 0.0 0.0 0.00 0.57 0.00 98 1011.1
20260905120954 69 324 0.0 0.0 0.00 0.57 0.00 98 1011.1
20260905120851 69 324 0.0 0.0 0.00 0.57 0.00 98 1011.1
20260905120747 69 324 0.0 0.0 0.00 0.57 0.00 98 1011.0
20260905120641 69 324 0.0 0.0 0.00 0.57 0.00 98 1011.0
20260905120319 69 324 0.0 0.0 0.00 0.57 0.00 98 1011.1
20260905120214 69 324 0.0 0.0 0.00 0.57 0.00 98 1011.1
20260905120111 69 324 0.0 0.0 0.00 0.57 0.00 98 1011.1
20260905120009 69 324 0.0 0.0 0.00 0.57 0.00 98 1011.0
20260905115905 69 324 0.0 0.0 0.00 0.57 0.00 98 1011.0
20260905115539 69 324 0.0 0.0 0.00 0.57 0.00 97 1011.0
20260905115433 69 324 0.0 0.0 0.00 0.57 0.00 97 1011.0
20260905115331 69 324 0.0 0.0 0.00 0.57 0.00 97 1010.9
20260905115225 69 324 0.0 0.0 0.00 0.57 0.00 97 1010.9
20260905115122 69 324 0.0 0.0 0.00 0.57 0.00 97 1011.0
20260905115017 69 324 0.0 0.0 0.00 0.57 0.00 97 1011.0
20260905114916 69 324 0.0 0.0 0.00 0.57 0.00 97 1011.0
20260905114811 69 324 0.0 0.0 0.00 0.57 0.00 97 1011.0
20260905114705 69 324 0.0 0.0 0.00 0.57 0.00 97 1010.9
20260905114341 69 324 0.0 0.0 0.00 0.57 0.00 97 1010.9
20260905114236 69 324 0.0 0.0 0.00 0.57 0.00 97 1010.9
20260905114132 69 324 0.0 0.0 0.00 0.57 0.00 97 1010.8
20260905114026 69 324 0.0 0.0 0.00 0.57 0.00 97 1010.8
20260905113921 69 324 0.0 0.0 0.00 0.57 0.00 97 1010.9
20260905113556 69 324 0.0 0.0 0.00 0.57 0.00 97 1010.8
20260905113452 69 324 0.0 0.0 0.00 0.57 0.00 97 1010.8
20260905113344 69 324 0.0 0.0 0.00 0.57 0.00 97 1010.9
20260905113241 69 324 0.0 0.0 0.00 0.57 0.00 97 1010.9
20260905113135 69 324 0.0 0.0 0.00 0.57 0.00 97 1010.9
20260905113031 69 324 0.0 0.0 0.00 0.57 0.00 97 1010.8
20260905112929 69 324 0.0 0.0 0.00 0.57 0.00 97 1010.8
20260905112826 68 324 0.0 0.0 0.00 0.57 0.00 97 1010.8
20260905112719 69 324 0.0 0.0 0.00 0.57 0.00 97 1010.8
20260905112618 68 324 0.0 0.0 0.00 0.57 0.00 97 1010.8
20260905112513 69 324 0.0 0.0 0.00 0.57 0.00 97 1010.8
20260905112408 69 324 0.0 0.0 0.00 0.57 0.00 97 1010.7
20260905112306 68 324 0.0 0.0 0.00 0.57 0.00 97 1010.7
20260905112203 69 324 0.0 0.0 0.00 0.57 0.00 97 1010.8
20260905111832 69 324 0.0 0.0 0.00 0.57 0.00 97 1010.8
20260905111730 69 324 0.0 0.0 0.00 0.57 0.00 97 1010.8
20260905111624 69 324 0.0 0.0 0.00 0.57 0.00 97 1010.9
20260905111516 69 324 0.0 0.0 0.00 0.57 0.00 97 1010.9
20260905111410 69 324 0.0 0.0 0.00 0.57 0.00 97 1010.9
20260905110821 69 297 0.0 0.0 0.00 0.57 0.00 97 1010.8
20260905110717 69 297 0.0 0.0 0.00 0.57 0.00 97 1010.8
20260905110353 69 297 0.0 0.0 0.00 0.57 0.00 97 1010.8
20260905110250 69 297 0.0 0.0 0.00 0.57 0.00 97 1010.9
20260905105926 69 297 0.0 0.0 0.00 0.57 0.00 97 1010.8
20260905105822 68 297 0.0 0.0 0.00 0.57 0.00 97 1010.8
20260905105458 68 297 0.0 0.0 0.00 0.57 0.00 97 1010.6
20260905105352 69 308 0.0 0.0 0.00 0.57 0.00 97 1010.5
20260905105250 68 28 0.0 0.0 0.00 0.57 0.00 97 1010.5
20260905105144 69 28 0.0 0.0 0.00 0.57 0.00 97 1010.5
20260905105038 69 28 0.0 0.0 0.00 0.57 0.00 97 1010.4
20260905104935 69 28 0.0 0.0 0.00 0.57 0.00 97 1010.4
20260905104614 69 28 0.0 0.0 0.00 0.57 0.00 97 1010.3
20260905104508 69 28 0.0 0.0 0.00 0.57 0.00 97 1010.3
20260905103926 69 28 0.0 0.0 0.00 0.57 0.00 97 1010.3
20260905103823 69 28 0.0 0.0 0.00 0.57 0.00 97 1010.3
20260905103717 69 28 0.0 0.0 0.00 0.57 0.00 97 1010.2
20260905103616 69 28 0.0 0.0 0.00 0.57 0.00 97 1010.3
20260905103513 69 28 0.0 0.0 0.00 0.57 0.00 97 1010.3
20260905103408 69 28 0.0 0.0 0.00 0.57 0.00 97 1010.3
20260905103305 69 28 0.0 0.0 0.00 0.57 0.00 97 1010.2
20260905103201 69 28 0.0 0.0 0.00 0.57 0.00 97 1010.2
20260905103057 69 28 0.0 0.0 0.00 0.57 0.00 97 1010.2
20260905102953 69 28 0.0 0.0 0.00 0.57 0.00 97 1010.2
20260905102846 69 28 0.0 0.0 0.00 0.57 0.00 97 1010.2
20260905102521 69 28 0.0 0.0 0.00 0.57 0.00 97 1010.1
20260905102416 69 28 0.0 0.0 0.00 0.57 0.00 97 1010.1
20260905102311 69 28 0.0 0.0 0.00 0.57 0.00 97 1010.1
20260905102207 69 28 0.0 0.0 0.00 0.57 0.00 97 1010.1
20260905102059 69 28 0.0 0.0 0.00 0.57 0.00 97 1010.0
20260905101954 69 28 0.0 0.0 0.00 0.57 0.00 97 1010.0
20260905101846 69 28 0.0 0.0 0.00 0.57 0.00 97 1009.9
20260905101741 69 28 0.0 0.0 0.00 0.57 0.00 97 1009.9
20260905101634 69 28 0.0 0.0 0.00 0.57 0.00 97 1009.9
20260905101529 69 28 0.0 0.0 0.00 0.57 0.00 97 1009.9
20260905101423 69 28 0.0 0.0 0.00 0.57 0.00 97 1009.9
20260905101320 69 28 0.0 0.0 0.00 0.57 0.00 97 1009.9
20260905101216 69 28 0.0 0.0 0.00 0.57 0.00 97 1010.0
20260905101109 69 28 0.0 0.0 0.00 0.57 0.00 97 1009.9
20260905101005 69 28 0.0 0.0 0.00 0.57 0.00 97 1009.9
20260905100901 69 28 0.0 0.0 0.00 0.57 0.00 97 1009.9
20260905100757 69 28 0.0 0.0 0.00 0.57 0.00 97 1009.9
20260905100650 69 28 0.0 0.0 0.00 0.57 0.00 97 1009.9
20260905100547 69 28 0.0 0.0 0.00 0.57 0.00 97 1009.8
20260905100441 69 28 0.0 0.0 0.00 0.57 0.00 97 1009.8
20260905100334 69 28 0.0 0.0 0.00 0.57 0.00 97 1009.8
20260905100231 69 28 0.0 0.0 0.00 0.57 0.00 97 1009.9
20260905100123 69 28 0.0 0.0 0.00 0.57 0.00 97 1009.8
20260905100019 69 28 0.0 0.0 0.00 0.57 0.00 97 1009.8
20260905095917 69 28 0.0 0.0 0.00 0.57 0.00 97 1009.8
20260905095810 69 28 0.0 0.0 0.00 0.57 0.00 97 1009.8
20260905095705 69 28 0.0 0.0 0.00 0.57 0.00 97 1009.8
20260905095340 69 28 0.0 0.0 0.00 0.57 0.00 97 1009.7
20260905095236 69 28 0.0 0.0 0.00 0.57 0.00 97 1009.7
20260905095131 69 28 0.0 0.0 0.00 0.57 0.00 97 1009.7
20260905095025 69 28 0.0 0.0 0.00 0.57 0.00 97 1009.7
20260905094922 69 28 0.0 1.0 0.00 0.57 0.00 97 1009.7
20260905094819 69 28 0.0 1.0 0.00 0.57 0.00 97 1009.7
20260905094715 69 28 0.0 1.0 0.00 0.57 0.00 97 1009.7
20260905094611 69 28 0.0 1.0 0.00 0.57 0.00 97 1009.7
20260905094509 69 28 0.0 1.0 0.00 0.57 0.00 97 1009.7
20260905094401 69 28 0.0 1.0 0.00 0.57 0.00 97 1009.7
20260905094253 69 28 0.0 0.0 0.00 0.57 0.00 97 1009.7
20260905093930 69 28 0.0 0.0 0.00 0.57 0.00 97 1009.8
20260905093828 69 28 0.0 0.0 0.00 0.57 0.00 97 1009.8
20260905093724 69 28 0.0 0.0 0.00 0.57 0.00 97 1009.8
20260905093622 69 28 0.0 0.0 0.00 0.57 0.00 97 1009.8
20260905093515 69 28 0.0 0.0 0.00 0.57 0.00 97 1009.8
20260905093411 69 28 0.0 0.0 0.00 0.57 0.00 97 1009.8
20260905093304 69 28 0.0 0.0 0.00 0.57 0.00 97 1009.8
20260905093157 69 28 0.0 1.0 0.00 0.57 0.00 97 1009.8
20260905093051 69 28 0.0 1.0 0.00 0.57 0.00 97 1009.8
20260905092948 69 28 0.0 1.0 0.00 0.57 0.00 97 1009.8
20260905092846 69 28 0.0 0.0 0.00 0.57 0.00 97 1009.7
20260905092745 69 28 0.0 0.0 0.00 0.57 0.00 97 1009.8
20260905092640 69 28 0.0 0.0 0.00 0.57 0.00 97 1009.7
20260905092536 69 28 0.0 0.0 0.00 0.57 0.00 97 1009.7
20260905092429 69 28 0.0 0.0 0.00 0.57 0.00 97 1009.7
20260905092103 69 28 0.0 0.0 0.00 0.57 0.00 97 1009.8
20260905092001 69 28 0.0 0.0 0.00 0.57 0.00 97 1009.8
20260905091858 69 28 0.0 0.0 0.00 0.57 0.00 97 1009.8
20260905091755 69 28 0.0 0.0 0.00 0.57 0.00 97 1009.8
20260905091648 69 28 0.0 0.0 0.00 0.57 0.00 97 1009.8
20260905091541 69 28 0.0 0.0 0.00 0.57 0.00 97 1009.8
20260905091439 69 28 0.0 0.0 0.00 0.57 0.00 97 1009.8
20260905091334 69 28 0.0 0.0 0.00 0.57 0.00 97 1009.8
20260905091010 69 28 0.0 0.0 0.00 0.57 0.00 97 1009.8
20260905090908 69 28 0.0 0.0 0.00 0.57 0.00 97 1009.8
20260905090801 69 28 0.0 0.0 0.00 0.57 0.00 97 1009.8
20260905090432 69 28 0.0 0.0 0.00 0.57 0.00 97 1009.8
20260905090110 69 28 0.0 0.0 0.00 0.57 0.00 97 1009.9
20260905090006 69 28 0.0 0.0 0.00 0.57 0.00 97 1009.9
20260905085859 69 28 0.0 0.0 0.00 0.57 0.00 97 1009.9
20260905085757 69 28 0.0 0.0 0.00 0.57 0.00 97 1009.9
20260905085653 69 28 0.0 0.0 0.00 0.57 0.00 97 1009.9
20260905085549 69 28 0.0 0.0 0.00 0.57 0.00 97 1009.9
20260905085444 69 28 0.0 0.0 0.00 0.57 0.00 97 1009.9
20260905085338 69 28 0.0 0.0 0.00 0.57 0.00 97 1009.9
20260905085234 69 28 0.0 0.0 0.00 0.57 0.00 97 1009.9
20260905085130 69 28 0.0 0.0 0.00 0.57 0.00 97 1009.9
20260905085024 69 28 0.0 0.0 0.00 0.57 0.00 97 1009.9
20260905084920 69 28 0.0 0.0 0.00 0.57 0.00 97 1009.9
20260905084817 69 28 0.0 0.0 0.00 0.57 0.00 97 1009.9
20260905084714 69 28 0.0 0.0 0.00 0.57 0.00 97 1009.8
20260905084611 69 28 0.0 0.0 0.00 0.57 0.00 97 1009.9
20260905084504 69 28 0.0 0.0 0.00 0.57 0.00 97 1009.9
20260905084139 69 28 0.0 0.0 0.00 0.57 0.00 97 1009.8
20260905084034 69 28 0.0 0.0 0.00 0.57 0.00 97 1009.9
20260905083927 69 28 0.0 0.0 0.00 0.57 0.00 97 1009.8
20260905083822 69 28 0.0 0.0 0.00 0.57 0.00 97 1009.8
20260905083717 69 28 0.0 0.0 0.00 0.57 0.00 97 1009.8
20260905083612 69 28 0.0 0.0 0.00 0.57 0.00 97 1009.8
20260905083510 70 28 0.0 0.0 0.00 0.57 0.00 97 1009.8
20260905083407 69 28 0.0 0.0 0.00 0.57 0.00 97 1009.8
20260905083305 69 28 0.0 0.0 0.00 0.57 0.00 97 1009.9
20260905083200 69 28 0.0 0.0 0.00 0.57 0.00 97 1009.8
20260905082350 70 28 0.0 0.0 0.00 0.57 0.00 97 1009.9
20260905082243 70 28 0.0 0.0 0.00 0.57 0.00 97 1009.9
20260905082140 70 28 0.0 0.0 0.00 0.57 0.00 97 1009.9
20260905082035 70 28 0.0 0.0 0.00 0.57 0.00 97 1009.9
20260905081927 70 28 0.0 0.0 0.00 0.57 0.00 97 1009.9
20260905081603 70 28 0.0 0.0 0.00 0.57 0.00 97 1010.0
20260905081458 70 28 0.0 0.0 0.00 0.57 0.00 97 1010.0
20260905081353 70 28 0.0 0.0 0.00 0.57 0.00 97 1010.0
20260905080803 70 28 0.0 0.0 0.00 0.57 0.00 97 1010.0
20260905080659 70 28 0.0 0.0 0.00 0.57 0.00 97 1010.0
20260905080552 70 28 0.0 0.0 0.00 0.57 0.00 97 1010.1
20260905080230 70 28 0.0 0.0 0.00 0.57 0.00 97 1010.1
20260905075907 70 28 0.0 0.0 0.00 0.57 0.00 97 1010.1
20260905075759 70 28 0.0 0.0 0.00 0.57 0.00 97 1010.2
20260905075431 70 28 0.0 0.0 0.00 0.57 0.00 97 1010.3
20260905075327 70 28 0.0 0.0 0.00 0.57 0.00 97 1010.4
20260905075225 70 28 0.0 0.0 0.00 0.57 0.00 97 1010.3
20260905075116 70 28 0.0 0.0 0.00 0.57 0.00 97 1010.3
20260905075010 70 28 0.0 0.0 0.00 0.57 0.00 97 1010.3
20260905074641 70 28 0.0 0.0 0.00 0.57 0.00 97 1010.3
20260905074538 70 28 0.0 0.0 0.00 0.57 0.00 97 1010.3
20260905074435 70 28 0.0 0.0 0.00 0.57 0.00 97 1010.3
20260905074333 70 28 0.0 0.0 0.00 0.57 0.00 97 1010.3
20260905074228 70 28 0.0 0.0 0.00 0.57 0.00 97 1010.3
20260905074124 70 28 0.0 0.0 0.00 0.57 0.00 97 1010.3
20260905074019 70 28 0.0 0.0 0.00 0.57 0.00 97 1010.3
20260905073915 70 28 0.0 0.0 0.00 0.57 0.00 97 1010.3
20260905073807 70 28 0.0 0.0 0.00 0.57 0.00 97 1010.2
20260905073701 70 28 0.0 0.0 0.00 0.57 0.00 97 1010.2
20260905073553 70 28 0.0 0.0 0.00 0.57 0.00 97 1010.2
20260905073446 70 28 0.0 0.0 0.00 0.57 0.00 97 1010.2
20260905073118 70 28 0.0 0.0 0.00 0.57 0.00 97 1010.2
20260905073012 70 28 0.0 0.0 0.00 0.58 0.00 97 1010.2
20260905072905 70 28 0.0 0.0 0.00 0.58 0.00 97 1010.2
20260905072320 70 28 0.0 0.0 0.00 0.58 0.00 97 1010.3
20260905072213 71 28 0.0 0.0 0.00 0.58 0.00 97 1010.3
20260905072106 71 28 0.0 0.0 0.00 0.58 0.00 97 1010.3
20260905071959 70 28 0.0 0.0 0.00 0.58 0.00 97 1010.3
20260905071853 71 28 0.0 0.0 0.00 0.58 0.00 97 1010.3
20260905071751 70 28 0.0 0.0 0.00 0.58 0.00 97 1010.3
20260905071649 71 28 0.0 0.0 0.00 0.58 0.00 97 1010.3
20260905071324 71 28 0.0 0.0 0.00 0.58 0.00 97 1010.3
20260905071218 71 28 0.0 0.0 0.00 0.58 0.00 97 1010.3
20260905071113 71 28 0.0 0.0 0.00 0.58 0.00 97 1010.3
20260905071009 71 28 0.0 0.0 0.00 0.58 0.00 97 1010.4
20260905070905 71 28 0.0 0.0 0.00 0.58 0.00 97 1010.4
20260905070800 71 28 0.0 0.0 0.00 0.58 0.00 97 1010.3
20260905070212 71 28 0.0 0.0 0.00 0.58 0.00 97 1010.5
20260905070105 71 28 0.0 0.0 0.00 0.58 0.00 97 1010.5
20260905065736 71 28 0.0 0.0 0.00 0.58 0.00 97 1010.5
20260905065634 71 28 0.0 0.0 0.00 0.58 0.00 97 1010.5
20260905065047 71 28 0.0 0.0 0.00 0.58 0.00 97 1010.6
20260905064944 71 28 0.0 0.0 0.00 0.58 0.00 97 1010.6
20260905064842 71 28 0.0 0.0 0.00 0.58 0.00 97 1010.6
20260905064518 71 28 0.0 0.0 0.00 0.58 0.00 97 1010.6
20260905064416 71 28 0.0 0.0 0.00 0.58 0.00 97 1010.6
20260905064314 71 28 0.0 0.0 0.00 0.58 0.00 97 1010.6
20260905063946 71 28 0.0 0.0 0.00 0.58 0.00 97 1010.6
20260905063838 71 28 0.0 0.0 0.00 0.58 0.00 97 1010.7
20260905063734 71 28 0.0 0.0 0.00 0.58 0.00 97 1010.7
20260905063628 71 28 0.0 0.0 0.00 0.58 0.00 97 1010.7
20260905063303 71 28 0.0 0.0 0.00 0.58 0.00 97 1010.8
20260905063200 71 28 0.0 0.0 0.00 0.58 0.00 97 1010.8
20260905063058 71 28 0.0 0.0 0.00 0.58 0.00 97 1010.9
20260905062734 71 28 0.0 0.0 0.00 0.58 0.00 97 1010.9
20260905062631 71 28 0.0 0.0 0.00 0.58 0.00 97 1010.9
20260905062525 71 28 0.0 0.0 0.00 0.58 0.00 97 1010.9
20260905062418 71 28 0.0 0.0 0.00 0.58 0.00 97 1010.9
20260905062312 71 28 0.0 0.0 0.00 0.58 0.00 97 1010.9
20260905062207 71 28 0.0 0.0 0.00 0.58 0.00 97 1010.9
20260905061841 71 28 0.0 0.0 0.00 0.58 0.00 97 1010.9
20260905061735 71 28 0.0 0.0 0.00 0.58 0.00 97 1010.9
20260905061631 71 28 0.0 0.0 0.00 0.58 0.00 97 1010.9
20260905061528 71 28 0.0 0.0 0.00 0.58 0.00 97 1011.0
20260905061421 71 28 0.0 0.0 0.00 0.58 0.00 97 1011.0
20260905061317 71 28 0.0 0.0 0.00 0.58 0.00 97 1011.0
20260905061213 71 28 0.0 0.0 0.00 0.58 0.00 97 1011.0
20260905061108 71 28 0.0 0.0 0.00 0.58 0.00 97 1011.1
20260905060519 71 28 0.0 0.0 0.00 0.58 0.00 97 1011.2
20260905060152 71 28 0.0 0.0 0.00 0.58 0.00 97 1011.3
20260905060045 71 28 0.0 0.0 0.00 0.58 0.00 97 1011.3
20260905055939 71 28 0.0 0.0 0.00 0.58 0.00 97 1011.3
20260905055834 71 28 0.0 0.0 0.00 0.58 0.00 97 1011.3
20260905055513 71 28 0.0 0.0 0.00 0.58 0.00 97 1011.3
20260905055410 71 28 0.0 0.0 0.00 0.58 0.00 97 1011.4
20260905055307 71 28 0.0 0.0 0.00 0.58 0.00 97 1011.3
20260905055159 71 28 0.0 0.0 0.00 0.58 0.00 97 1011.3
20260905054840 71 28 0.0 0.0 0.00 0.58 0.00 97 1011.3
20260905054736 71 28 0.0 0.0 0.00 0.58 0.00 97 1011.3
20260905054632 71 28 0.0 0.0 0.00 0.58 0.00 97 1011.3
20260905054527 71 28 0.0 0.0 0.00 0.58 0.00 97 1011.3
20260905054420 71 28 0.0 0.0 0.00 0.58 0.00 97 1011.3
20260905054316 71 28 0.0 0.0 0.00 0.58 0.00 97 1011.3
20260905053950 71 28 0.0 0.0 0.00 0.58 0.00 97 1011.4
20260905053845 71 28 0.0 0.0 0.00 0.58 0.00 97 1011.4
20260905053742 71 28 0.0 0.0 0.00 0.58 0.00 97 1011.4
20260905053416 71 28 0.0 0.0 0.00 0.58 0.00 97 1011.5
20260905053312 71 28 0.0 0.0 0.00 0.58 0.00 97 1011.4
20260905053207 71 28 0.0 0.0 0.00 0.58 0.00 97 1011.5
20260905053101 71 28 0.0 0.0 0.00 0.58 0.00 97 1011.5
20260905052958 71 28 0.0 0.0 0.00 0.58 0.00 97 1011.5
20260905052637 71 28 0.0 0.0 0.00 0.58 0.00 97 1011.5
20260905052532 71 28 0.0 0.0 0.00 0.58 0.00 97 1011.5
20260905052427 71 28 0.0 0.0 0.00 0.58 0.00 97 1011.5
20260905052323 71 28 0.0 0.0 0.00 0.58 0.00 97 1011.6
20260905052219 71 28 0.0 0.0 0.00 0.58 0.00 97 1011.5
20260905051853 71 28 0.0 0.0 0.00 0.58 0.00 97 1011.6
20260905051746 71 28 0.0 0.0 0.00 0.58 0.00 97 1011.6
20260905051642 71 28 0.0 0.0 0.00 0.58 0.00 97 1011.6
20260905051536 71 28 0.0 0.0 0.00 0.59 0.00 97 1011.6
20260905051432 71 28 0.0 0.0 0.00 0.59 0.00 97 1011.6
20260905051329 71 28 0.0 0.0 0.00 0.59 0.00 97 1011.6
20260905051221 71 28 0.0 0.0 0.00 0.59 0.00 97 1011.6
20260905051115 71 28 0.0 0.0 0.00 0.60 0.00 97 1011.6
20260905051009 71 28 0.0 0.0 0.00 0.60 0.00 97 1011.6
20260905050904 71 28 0.0 0.0 0.00 0.60 0.00 97 1011.6
20260905050541 71 28 0.0 0.0 0.00 0.61 0.00 97 1011.6
20260905050434 71 28 0.0 0.0 0.00 0.61 0.00 97 1011.7
20260905050328 71 28 0.0 0.0 0.00 0.61 0.00 97 1011.6
20260905050002 71 28 0.0 0.0 0.00 0.61 0.00 97 1011.8
20260905045855 71 28 0.0 0.0 0.00 0.61 0.00 97 1011.8
20260905045749 71 28 0.0 0.0 0.00 0.61 0.00 97 1011.8
20260905045647 71 28 0.0 0.0 0.00 0.61 0.00 97 1011.8
20260905045540 71 28 0.0 2.0 0.00 0.61 0.00 97 1011.8
20260905045435 71 28 0.0 2.0 0.00 0.61 0.00 97 1011.8
20260905045326 71 28 0.0 2.0 0.00 0.61 0.00 97 1011.8
20260905044955 71 209 0.0 2.0 0.00 0.61 0.00 97 1011.8
20260905044853 71 64 0.0 1.0 0.00 0.61 0.00 97 1011.8
20260905044750 71 150 0.0 1.0 0.00 0.61 0.00 97 1011.9
20260905044644 71 271 0.0 1.0 0.00 0.61 0.00 97 1011.9
20260905044536 71 329 0.0 1.0 0.00 0.61 0.00 97 1011.8
20260905044434 71 252 0.0 2.0 0.00 0.62 0.00 97 1011.8
20260905044328 71 252 0.0 2.0 0.00 0.62 0.00 97 1011.9
20260905044225 71 252 0.0 2.0 0.00 0.63 0.00 97 1011.9
20260905044118 71 165 0.0 2.0 0.00 0.64 0.00 97 1011.9
20260905044014 71 198 0.0 2.0 0.00 0.66 0.00 97 1011.9
20260905043912 71 73 0.0 2.0 0.00 0.66 0.00 97 1011.9
20260905043808 71 73 0.0 2.0 0.00 0.66 0.00 97 1011.9
20260905043702 71 251 0.0 2.0 0.00 0.66 0.00 97 1012.0
20260905043600 71 251 0.0 2.0 0.00 0.66 0.00 97 1011.9
20260905043455 71 250 0.0 2.0 0.00 0.66 0.00 97 1011.9
20260905043350 71 250 0.0 2.0 0.00 0.66 0.00 97 1012.0
20260905043246 71 258 0.0 2.0 0.00 0.66 0.00 97 1012.0
20260905042923 71 284 0.0 2.0 0.00 0.66 0.00 97 1011.9
20260905042818 71 271 0.0 2.0 0.00 0.66 0.00 97 1011.9
20260905042713 71 286 0.0 1.0 0.00 0.66 0.00 97 1011.9
20260905042608 71 267 0.0 1.0 0.00 0.66 0.00 97 1011.8
20260905042500 71 267 0.0 1.0 0.00 0.66 0.00 97 1011.9
20260905042355 71 267 0.0 1.0 0.00 0.66 0.00 97 1011.9
20260905042031 71 280 0.0 1.0 0.00 0.66 0.00 97 1011.9
20260905041923 71 239 0.0 1.0 0.00 0.66 0.00 97 1011.9
20260905041819 71 148 0.0 1.0 0.00 0.66 0.00 97 1011.9
20260905041715 71 248 0.0 0.0 0.00 0.66 0.00 97 1012.0
20260905041609 71 248 0.0 1.0 0.00 0.66 0.00 97 1012.0
20260905041501 71 46 0.0 1.0 0.00 0.66 0.00 97 1012.1
20260905041355 71 0 0.0 1.0 0.00 0.68 0.00 97 1012.1
20260905041252 71 86 0.0 1.0 0.00 0.68 0.00 97 1012.2
20260905041143 71 170 0.0 1.0 0.00 0.68 0.00 97 1012.2
20260905041038 71 233 0.0 1.0 0.00 0.68 0.00 97 1012.2
20260905040712 71 142 0.0 0.0 0.00 0.68 0.00 97 1012.2
20260905040609 71 142 0.0 0.0 0.00 0.68 0.00 97 1012.2
20260905040244 71 142 0.0 0.0 0.00 0.68 0.00 97 1012.2
20260905035925 71 142 0.0 0.0 0.00 0.70 0.69 97 1012.2
20260905035818 71 142 0.0 0.0 0.00 0.71 0.69 97 1012.3
20260905035711 71 142 0.0 0.0 0.00 0.71 0.69 97 1012.3
20260905035604 71 142 0.0 0.0 0.00 0.71 0.69 97 1012.3
20260905035502 71 142 0.0 0.0 0.00 0.72 0.69 97 1012.3
20260905035357 71 142 0.0 0.0 0.00 0.73 0.69 97 1012.3
20260905035255 71 142 0.0 0.0 0.00 0.77 0.69 97 1012.3
20260905035149 71 142 0.0 0.0 0.00 0.79 0.69 97 1012.3
20260905035043 71 142 0.0 0.0 0.00 0.80 0.69 97 1012.3
20260905034937 71 142 0.0 0.0 0.00 0.81 0.69 97 1012.3
20260905034831 71 142 0.0 0.0 0.00 0.81 0.69 97 1012.3
20260905034502 71 142 0.0 0.0 0.00 0.81 0.69 97 1012.3
20260905034400 72 223 0.0 0.0 0.00 0.81 0.69 97 1012.3
20260905034031 72 243 0.0 0.0 0.00 0.81 0.69 97 1012.3
20260905033927 72 243 0.0 0.0 0.00 0.81 0.69 97 1012.3
20260905033820 72 243 0.0 0.0 0.00 0.81 0.69 97 1012.3
20260905033715 72 243 0.0 0.0 0.00 0.81 0.69 97 1012.3
20260905033608 72 243 0.0 0.0 0.00 0.81 0.69 97 1012.3
20260905033500 72 243 0.0 0.0 0.00 0.81 0.69 97 1012.3
20260905033353 72 243 0.0 0.0 0.00 0.81 0.69 97 1012.4
20260905033250 72 243 0.0 0.0 0.00 0.81 0.69 97 1012.4
20260905032703 72 243 0.0 0.0 0.00 0.81 0.69 97 1012.4
20260905032339 72 243 0.0 0.0 0.00 0.81 0.69 97 1012.4
20260905032233 72 243 0.0 0.0 0.00 0.81 0.69 97 1012.4
20260905032126 72 243 0.0 0.0 0.00 0.81 0.69 97 1012.4
20260905032022 72 243 0.0 0.0 0.00 0.81 0.69 97 1012.4
20260905031915 72 243 0.0 0.0 0.00 0.81 0.69 97 1012.3
20260905031808 72 243 0.0 0.0 0.00 0.81 0.69 97 1012.3
20260905031703 72 243 0.0 1.0 0.00 0.81 0.69 97 1012.3
20260905031559 72 243 0.0 1.0 0.00 0.81 0.69 97 1012.3
20260905031234 72 326 0.0 1.0 0.00 0.81 0.69 97 1012.3
20260905030909 72 326 0.0 0.0 0.00 0.81 0.69 97 1012.2
20260905030803 72 326 0.0 0.0 0.00 0.81 0.69 97 1012.3
20260905030701 72 326 0.0 0.0 0.00 0.81 0.69 97 1012.3
20260905030554 71 326 0.0 0.0 0.00 0.81 0.69 97 1012.3
20260905030448 72 326 0.0 0.0 0.00 0.81 0.69 97 1012.3
20260905030119 72 326 0.0 0.0 0.00 0.81 0.69 97 1012.3
20260905030013 72 326 0.0 0.0 0.00 0.81 0.69 97 1012.2
20260905025909 72 326 0.0 0.0 0.00 0.81 0.69 97 1012.3
20260905025806 72 326 0.0 0.0 0.00 0.81 0.69 97 1012.2
20260905025700 72 326 0.0 0.0 0.00 0.81 0.69 97 1012.2
20260905025554 72 326 0.0 0.0 0.00 0.81 0.69 97 1012.2
20260905025447 72 326 0.0 0.0 0.00 0.81 0.69 97 1012.2
20260905025342 72 326 0.0 0.0 0.00 0.81 0.69 97 1012.2
20260905024801 72 326 0.0 0.0 0.00 0.81 0.69 97 1012.3
20260905024440 72 326 0.0 0.0 0.00 0.81 0.69 97 1012.2
20260905024335 72 326 0.0 0.0 0.00 0.81 0.69 97 1012.2
20260905024233 72 326 0.0 0.0 0.00 0.81 0.69 97 1012.2
20260905024128 72 326 0.0 0.0 0.00 0.81 0.69 97 1012.2
20260905024022 72 326 0.0 0.0 0.00 0.81 0.69 97 1012.3
20260905023914 72 326 0.0 0.0 0.00 0.81 0.69 97 1012.3
20260905023809 72 326 0.0 0.0 0.00 0.82 0.69 97 1012.2
20260905023703 72 326 0.0 0.0 0.00 0.82 0.69 97 1012.3
20260905023555 72 326 0.0 0.0 0.00 0.82 0.69 97 1012.3
20260905023453 72 326 0.0 0.0 0.00 0.82 0.69 97 1012.3
20260905023345 72 326 0.0 0.0 0.00 0.82 0.69 97 1012.4
20260905023239 72 326 0.0 0.0 0.00 0.82 0.69 97 1012.4
20260905022919 72 326 0.0 0.0 0.00 0.82 0.69 97 1012.4
20260905022813 72 326 0.0 0.0 0.00 0.82 0.69 97 1012.4
20260905022706 72 326 0.0 0.0 0.00 0.82 0.69 97 1012.4
20260905022117 72 326 0.0 0.0 0.00 0.82 0.69 97 1012.3
20260905022012 72 326 0.0 0.0 0.00 0.82 0.69 97 1012.2
20260905021906 72 326 0.0 0.0 0.00 0.82 0.69 97 1012.2
20260905021801 72 326 0.0 0.0 0.00 0.82 0.69 97 1012.2
20260905021437 72 326 0.0 0.0 0.00 0.82 0.69 97 1012.1
20260905021335 72 326 0.0 0.0 0.00 0.82 0.69 97 1012.0
20260905021231 72 326 0.0 0.0 0.00 0.82 0.69 97 1012.0
20260905021128 72 326 0.0 0.0 0.00 0.82 0.69 97 1012.0
20260905021025 72 326 0.0 0.0 0.00 0.82 0.69 97 1011.9
20260905020919 72 326 0.0 0.0 0.00 0.82 0.69 97 1011.9
20260905020816 72 326 0.0 0.0 0.00 0.82 0.69 97 1011.8
20260905020710 72 326 0.0 0.0 0.00 0.82 0.69 97 1011.8
20260905020607 72 326 0.0 0.0 0.00 0.82 0.69 97 1011.8
20260905020501 72 326 0.0 0.0 0.00 0.82 0.69 97 1011.9
20260905020133 72 326 0.0 0.0 0.00 0.82 0.69 97 1011.9
20260905020028 72 326 0.0 0.0 0.00 0.82 0.69 97 1011.9
20260905015926 72 326 0.0 0.0 0.00 0.82 0.69 97 1011.9
20260905015824 72 326 0.0 0.0 0.00 0.82 0.69 97 1011.8
20260905015719 72 326 0.0 0.0 0.00 0.82 0.69 97 1011.8
20260905015613 72 326 0.0 0.0 0.00 0.82 0.69 97 1011.9
20260905015511 72 326 0.0 0.0 0.00 0.82 0.69 97 1011.9
20260905015408 72 326 0.0 0.0 0.00 0.82 0.69 97 1011.9
20260905015306 72 326 0.0 0.0 0.00 0.82 0.69 97 1011.9
20260905015155 72 326 0.0 0.0 0.00 0.82 0.69 97 1011.8
20260905015052 72 326 0.0 0.0 0.00 0.82 0.69 97 1011.8
20260905014946 72 326 0.0 0.0 0.00 0.82 0.69 97 1011.8
20260905014841 72 326 0.0 0.0 0.00 0.82 0.69 97 1011.8
20260905014734 72 326 0.0 0.0 0.00 0.82 0.69 97 1011.7
20260905014631 72 325 0.0 0.0 0.00 0.82 0.69 97 1011.7
20260905014528 72 326 0.0 0.0 0.00 0.82 0.69 97 1011.7
20260905014424 72 326 0.0 0.0 0.00 0.82 0.69 97 1011.7
20260905014316 72 326 0.0 0.0 0.00 0.82 0.69 97 1011.6
20260905014214 72 326 0.0 0.0 0.00 0.82 0.69 97 1011.7
20260905014111 72 325 0.0 0.0 0.00 0.82 0.69 97 1011.7
20260905014009 72 326 0.0 0.0 0.00 0.82 0.69 97 1011.7
20260905013906 72 326 0.0 0.0 0.00 0.82 0.69 97 1011.7
20260905013804 72 326 0.0 0.0 0.00 0.82 0.69 97 1011.7
20260905013701 72 326 0.0 0.0 0.00 0.82 0.69 97 1011.7
20260905013557 72 326 0.0 0.0 0.00 0.82 0.69 97 1011.8
20260905013450 72 326 0.0 0.0 0.00 0.82 0.69 97 1011.8
20260905013127 72 326 0.0 0.0 0.00 0.82 0.69 97 1011.8
20260905013023 72 326 0.0 0.0 0.00 0.82 0.69 97 1011.7
20260905012921 72 326 0.0 0.0 0.00 0.82 0.69 97 1011.6
20260905012334 72 326 0.0 0.0 0.00 0.82 0.69 97 1011.5
20260905012013 72 326 0.0 0.0 0.00 0.82 0.69 97 1011.5
20260905011907 72 326 0.0 0.0 0.00 0.82 0.69 97 1011.5
20260905011804 72 326 0.0 0.0 0.00 0.82 0.69 97 1011.4
20260905011700 72 326 0.0 0.0 0.00 0.82 0.69 97 1011.4
20260905011337 72 326 0.0 0.0 0.00 0.82 0.69 97 1011.3
20260905011232 72 326 0.0 0.0 0.00 0.82 0.69 97 1011.2
20260905010909 72 326 0.0 0.0 0.00 0.82 0.69 97 1011.1
20260905010806 72 326 0.0 0.0 0.00 0.82 0.69 97 1011.0
20260905010659 72 325 0.0 0.0 0.00 0.82 0.69 97 1011.0
20260905010553 72 326 0.0 0.0 0.00 0.82 0.69 97 1011.0
20260905010451 72 326 0.0 0.0 0.00 0.82 0.69 97 1011.0
20260905010347 72 326 0.0 0.0 0.00 0.82 0.69 97 1011.0
20260905010244 72 326 0.0 0.0 0.00 0.82 0.69 97 1011.1
20260905010140 72 326 0.0 0.0 0.00 0.82 0.69 97 1011.0
20260905005814 72 326 0.0 0.0 0.00 0.82 0.69 97 1011.0
20260905005709 72 326 0.0 0.0 0.00 0.82 0.69 97 1011.0
20260905005346 73 326 0.0 0.0 0.00 0.82 0.69 97 1011.1
20260905005240 73 326 0.0 0.0 0.00 0.82 0.69 97 1011.1
20260905005137 73 326 0.0 0.0 0.00 0.82 0.69 97 1011.1
20260905005036 73 326 0.0 0.0 0.00 0.82 0.69 97 1011.2
20260905004933 72 283 0.0 0.0 0.00 0.82 0.69 97 1011.1
20260905004830 73 289 0.0 0.0 0.00 0.82 0.69 97 1011.1
20260905004505 73 289 0.0 0.0 0.00 0.82 0.69 97 1011.0
20260905004358 73 289 0.0 1.0 0.00 0.82 0.69 97 1011.1
20260905004255 73 289 0.0 1.0 0.00 0.82 0.69 97 1011.0
20260905004152 73 289 0.0 1.0 0.00 0.82 0.69 97 1011.1
20260905004048 73 289 0.0 1.0 0.00 0.82 0.69 97 1011.1
20260905003943 73 289 0.0 1.0 0.00 0.82 0.69 97 1011.1
20260905003836 73 289 0.0 1.0 0.00 0.82 0.69 97 1011.2
20260905003732 73 289 0.0 1.0 0.00 0.82 0.69 97 1011.3
20260905003625 73 289 0.0 1.0 0.00 0.82 0.69 97 1011.3
20260905003258 73 289 0.0 1.0 0.00 0.82 0.69 97 1011.4
20260905003151 73 289 0.0 1.0 0.00 0.82 0.69 97 1011.4
20260905002827 73 66 0.0 0.0 0.00 0.82 0.69 97 1011.4
20260905002248 73 66 0.0 0.0 0.00 0.82 0.69 97 1011.2
20260905002146 73 66 0.0 0.0 0.00 0.82 0.69 97 1011.2
20260905001823 73 66 0.0 0.0 0.00 0.82 0.69 97 1011.1
20260905001719 73 66 0.0 0.0 0.00 0.82 0.69 97 1011.1
20260905001611 73 66 0.0 0.0 0.00 0.82 0.69 97 1011.0
20260905001505 73 66 0.0 0.0 0.00 0.82 0.69 97 1011.0
20260905001400 73 66 0.0 0.0 0.00 0.82 0.69 97 1011.0
20260905001252 73 66 0.0 0.0 0.00 0.82 0.69 97 1011.0
20260905000929 73 66 0.0 0.0 0.00 0.82 0.69 97 1011.0
20260905000827 73 66 0.0 0.0 0.00 0.82 0.69 97 1011.1
20260905000722 73 66 0.0 0.0 0.00 0.82 0.69 97 1011.1
20260905000617 73 66 0.0 0.0 0.00 0.82 0.69 97 1011.1
20260905000512 73 66 0.0 0.0 0.00 0.82 0.69 97 1011.1
20260905000145 73 66 0.0 0.0 0.00 0.82 0.69 97 1011.0
20260905000041 73 66 0.0 0.0 0.00 0.82 0.69 97 1011.0
20260904235456 73 66 0.0 0.0 0.00 0.82 0.69 97 1011.2
20260904235350 73 66 0.0 0.0 0.00 0.82 0.69 97 1011.2
20260904235246 73 66 0.0 0.0 0.00 0.82 0.69 97 1011.2
20260904234923 73 66 0.0 0.0 0.00 0.82 0.69 97 1011.2
20260904234819 73 66 0.0 0.0 0.00 0.82 0.69 97 1011.1
20260904234714 73 66 0.0 0.0 0.00 0.82 0.69 97 1011.1
20260904234607 73 66 0.0 0.0 0.00 0.82 0.69 97 1011.1
20260904234504 73 66 0.0 0.0 0.00 0.82 0.69 97 1011.1
20260904233922 73 66 0.0 0.0 0.00 0.82 0.69 97 1011.3
20260904233818 73 66 0.0 0.0 0.00 0.82 0.69 97 1011.3
20260904233450 73 66 0.0 0.0 0.00 0.82 0.69 97 1011.3
20260904233344 73 66 0.0 0.0 0.00 0.82 0.69 97 1011.3
20260904233238 73 66 0.0 0.0 0.00 0.82 0.69 97 1011.3
20260904233132 73 66 0.0 0.0 0.00 0.82 0.69 97 1011.3
20260904233029 73 66 0.0 0.0 0.00 0.82 0.69 97 1011.3
20260904232921 73 66 0.0 0.0 0.00 0.82 0.69 97 1011.4
20260904232818 73 66 0.0 0.0 0.00 0.82 0.69 97 1011.4
20260904232450 73 66 0.0 0.0 0.00 0.82 0.69 97 1011.5
20260904232345 73 66 0.0 0.0 0.00 0.82 0.69 97 1011.5
20260904232239 73 66 0.0 0.0 0.00 0.82 0.69 97 1011.5
20260904232136 73 66 0.0 0.0 0.00 0.82 0.69 97 1011.5
20260904232029 73 66 0.0 0.0 0.00 0.82 0.69 97 1011.5
20260904231925 73 66 0.0 0.0 0.00 0.82 0.69 97 1011.4
20260904231823 73 66 0.0 0.0 0.00 0.82 0.69 97 1011.4
20260904231720 73 66 0.0 0.0 0.00 0.82 0.69 97 1011.4
20260904231613 73 66 0.0 0.0 0.00 0.82 0.69 97 1011.3
20260904231508 73 66 0.0 0.0 0.00 0.82 0.69 97 1011.3
20260904231402 73 66 0.0 0.0 0.00 0.82 0.69 97 1011.2
20260904231038 73 157 0.0 0.0 0.00 0.82 0.69 97 1011.2
20260904230711 73 157 0.0 1.0 0.00 0.82 0.69 97 1011.4
20260904230604 73 157 0.0 1.0 0.00 0.82 0.69 97 1011.4
20260904230459 73 157 0.0 1.0 0.00 0.82 0.69 97 1011.5
20260904230356 73 157 0.0 1.0 0.00 0.82 0.69 97 1011.5
20260904230254 73 72 0.0 0.0 0.00 0.82 0.69 97 1011.5
20260904230147 73 99 0.0 0.0 0.00 0.82 0.69 97 1011.4
20260904230042 73 5 0.0 0.0 0.00 0.82 0.69 97 1011.4
20260904225935 72 274 0.0 0.0 0.00 0.82 0.69 97 1011.4
20260904225832 72 274 0.0 0.0 0.00 0.82 0.69 97 1011.4
20260904225727 72 274 0.0 0.0 0.00 0.82 0.69 97 1011.3
20260904225620 72 274 0.0 0.0 0.00 0.82 0.69 97 1011.2
20260904225039 72 71 0.0 0.0 0.00 0.82 0.69 97 1011.0
20260904224937 72 88 0.0 0.0 0.00 0.82 0.69 97 1010.9
20260904224616 72 88 0.0 0.0 0.00 0.82 0.69 97 1010.8
20260904224251 72 88 0.0 0.0 0.00 0.82 0.69 97 1011.1
20260904224144 72 24 0.0 0.0 0.00 0.82 0.69 97 1011.1
20260904224040 72 24 0.0 0.0 0.00 0.82 0.69 97 1011.2
20260904223720 72 24 0.0 0.0 0.00 0.82 0.69 97 1011.2
20260904223618 72 24 0.0 0.0 0.00 0.82 0.69 97 1011.1
20260904223512 72 24 0.0 0.0 0.00 0.82 0.69 97 1011.0
20260904223407 72 24 0.0 0.0 0.00 0.82 0.69 97 1011.0
20260904223303 72 24 0.0 0.0 0.00 0.82 0.69 97 1010.9
20260904223155 72 24 0.0 0.0 0.00 0.82 0.69 97 1010.9
20260904223047 72 24 0.0 0.0 0.00 0.82 0.69 97 1010.9
20260904222942 72 24 0.0 0.0 0.00 0.82 0.69 97 1010.9
20260904222834 72 24 0.0 0.0 0.00 0.82 0.69 97 1011.0
20260904222512 72 24 0.0 0.0 0.00 0.82 0.69 97 1011.0
20260904222405 72 24 0.0 0.0 0.00 0.82 0.69 97 1011.1
20260904222306 72 24 0.0 0.0 0.00 0.82 0.69 97 1011.1
20260904222157 72 24 0.0 0.0 0.00 0.82 0.69 97 1011.1
20260904222049 72 24 0.0 0.0 0.00 0.82 0.69 97 1011.1
20260904221944 72 24 0.0 0.0 0.00 0.82 0.69 97 1011.1
20260904221839 72 24 0.0 0.0 0.00 0.82 0.69 97 1011.0
20260904221733 72 24 0.0 0.0 0.00 0.82 0.69 97 1011.0
20260904221628 72 24 0.0 0.0 0.00 0.82 0.69 97 1011.0
20260904221520 72 24 0.0 0.0 0.00 0.82 0.69 97 1011.0
20260904221414 72 24 0.0 0.0 0.00 0.82 0.69 97 1011.0
20260904221311 72 24 0.0 0.0 0.00 0.82 0.69 97 1011.0
20260904221207 72 24 0.0 0.0 0.00 0.82 0.69 97 1011.0
20260904221059 72 24 0.0 0.0 0.00 0.82 0.69 97 1011.1
20260904220515 72 54 0.0 2.0 0.00 0.82 0.69 97 1011.4
20260904220411 72 54 0.0 2.0 0.00 0.82 0.69 97 1011.4
20260904220308 72 167 0.0 0.0 0.00 0.82 0.69 97 1011.4
20260904215725 72 167 0.0 0.0 0.00 0.82 0.69 97 1011.6
20260904215620 72 167 0.0 0.0 0.00 0.82 0.69 97 1011.7
20260904215517 72 167 0.0 0.0 0.00 0.82 0.69 97 1011.7
20260904215411 72 167 0.0 0.0 0.00 0.82 0.69 97 1011.8
20260904215305 72 161 0.0 0.0 0.00 0.82 0.69 97 1011.9
20260904215156 71 161 0.0 0.0 0.00 0.82 0.69 97 1012.0
20260904215051 72 196 0.0 0.0 0.00 0.82 0.69 97 1012.0
20260904214947 72 107 0.0 0.0 0.00 0.82 0.69 97 1012.0
20260904214402 71 171 0.0 1.0 0.00 0.82 0.69 97 1012.1
20260904214259 71 106 0.0 0.0 0.00 0.82 0.69 97 1012.1
20260904213931 71 252 0.0 1.0 0.00 0.82 0.69 97 1012.2
20260904213823 71 252 0.0 1.0 0.00 0.82 0.69 97 1012.2
20260904213455 71 197 0.0 1.0 0.00 0.82 0.69 97 1012.1
20260904213348 71 111 0.0 1.0 0.00 0.82 0.69 97 1012.1
20260904213019 71 215 0.0 1.0 0.00 0.82 0.69 97 1012.1
20260904212914 70 238 0.0 0.0 0.00 0.82 0.69 97 1012.1
20260904212808 70 238 0.0 0.0 0.00 0.82 0.69 97 1012.1
20260904212704 70 238 0.0 0.0 0.00 0.82 0.69 97 1012.1
20260904212340 70 238 0.0 0.0 0.00 0.82 0.69 96 1011.9
20260904212236 70 238 0.0 0.0 0.00 0.82 0.69 96 1011.8
20260904211909 70 238 0.0 0.0 0.00 0.82 0.69 97 1011.8
20260904211804 70 238 0.0 0.0 0.00 0.82 0.69 96 1011.9
20260904211657 70 238 0.0 0.0 0.00 0.82 0.69 96 1011.9
20260904211551 70 238 0.0 0.0 0.00 0.82 0.69 96 1012.0
20260904211446 70 238 0.0 1.0 0.00 0.82 0.69 96 1012.1
20260904211119 69 316 0.0 1.0 0.00 0.82 0.69 96 1012.0
20260904211013 69 316 0.0 1.0 0.00 0.82 0.69 96 1012.0
20260904210907 69 316 0.0 0.0 0.00 0.81 0.69 96 1012.0
20260904210804 69 316 0.0 0.0 0.00 0.81 0.69 96 1011.9
20260904210702 69 316 0.0 2.0 0.00 0.81 0.68 96 1011.8
20260904210558 69 316 0.0 2.0 0.00 0.81 0.68 96 1011.8
20260904210234 69 316 0.0 2.0 0.00 0.81 0.68 96 1011.7
20260904210128 69 316 0.0 2.0 0.00 0.81 0.68 96 1011.8